Regional Weather Roundup
Issued by NWS

Home | Current Version | Previous Version | Graphics & Text | Print | Product List | Glossary On
Versions: 1 2 3 4 5 6 7 8 9 10 11 12 13 14 15 16 17 18 19 20 21 22 23 24 25 26 27 28 29 30 31 32 33 34 35 36 37 38 39 40 41 42 43 44 45 46 47 48 49 50
000
ASUS43 KBIS 291720
RWRND

NORTH DAKOTA REGIONAL WEATHER ROUNDUP
NATIONAL WEATHER SERVICE BISMARCK ND
1200 PM CDT TUE JUL 29 2014

NOTE: "FAIR" INDICATES FEW OR NO CLOUDS BELOW 12,000 FEET WITH NO
SIGNIFICANT WEATHER AND/OR OBSTRUCTIONS TO VISIBILITY.


NDZ001>003-009>011-017-291800-
NORTHWEST NORTH DAKOTA

CITY           SKY/WX    TMP DP  RH WIND       PRES   REMARKS
WILLISTON      SUNNY     78  56  46 E3        30.20F
MINOT          SUNNY     76  56  49 VRB3      30.20S
MINOT AFB      SUNNY     74  58  56 CALM      30.19F
$$

NDZ018>021-031>035-040>046-291800-
SOUTHWEST NORTH DAKOTA

CITY           SKY/WX    TMP DP  RH WIND       PRES   REMARKS
BISMARCK       SUNNY     75  53  46 VRB5      30.23F
DICKINSON      MOSUNNY   76  53  44 S8        30.22S
GARRISON         N/A     75  57  53 S7        30.22S
HETTINGER ARPT SUNNY     76  49  38 VRB5      30.24F
$$

NDZ004>008-012>016-024-026-027-054-291800-
NORTHEAST NORTH DAKOTA

CITY           SKY/WX    TMP DP  RH WIND       PRES   REMARKS
GRAND FORKS    MOSUNNY   75  55  49 N6        30.16F
GRND FRKS AFB  SUNNY     74  58  56 NW7       30.18S
DEVILS LAKE    MOSUNNY   72  54  53 NW7       30.18F
$$

NDZ022-023-025-028>030-036>039-047>053-291800-
SOUTHEAST NORTH DAKOTA

CITY           SKY/WX    TMP DP  RH WIND       PRES   REMARKS
FARGO          MOSUNNY   73  54  51 NW10      30.17F
JAMESTOWN      MOSUNNY   71  52  50 N7        30.20F
$$




USA.gov is the U.S. government's official web portal to all federal, state and local government web resources and services.